sat.trackr.live / text

‹ back to catalog

ICEYE-X49

NORAD 62384 · 2024-247H

PAYLOAD ACTIVE UNKNOWN

§ Identity

Operator
Country
FIN
Launch date
2024-12-21
Launch site
AFWTR
Launch vehicle
Mass (kg)
RCS (m²)

External: N2YO · Heavens-Above · Gunter

§ Orbital elements

Epoch: 2026-05-25T04:33:55.237824Z

Period
95.19 min
Inclination
44.9986°
Eccentricity
0.0001287
Mean motion
15.12778124 rev/d
Perigee alt
526.8 km
Apogee alt
528.6 km
Semi-major
6,905.9 km
B*
1.4658e-4
RAAN
120.1384°
Arg perigee
287.9688°
Mean anomaly
72.1049°
Rev number
7,869

§ Raw data

ICEYE-X491 62384U 24247H   26145.19022266  .00002360  00000+0  14658-3 0  99952 62384  44.9986 120.1384 0001287 287.9688  72.1049 15.12778124 78691

JSON: /api/v1/satellites/62384 · /tle

For live sub-satellite position, see the globe view (requires WebGL).

§ Visibility from observer

Set your observer location to see the next 7 days of passes ≥ 10°. The values pass through the URL so the page stays shareable.

No JS? Fill the form by hand. The geolocation button needs JavaScript.